Weather History for Pecos, TX

Change the Weather History Date:

Monday, April 1, 2013

  Actual Average Record
Temperature  
Mean Temperature 67 °F -  
Max Temperature 90 °F 81 °F 98 °F (1986)
Min Temperature 45 °F 42 °F 24 °F (1976)
Cooling Degree Days 2    
Growing Degree Days 17 (Base 50)    
Moisture  
Dew Point 38 °F    
Average Humidity 45    
Maximum Humidity 67    
Minimum Humidity 14    
Precipitation  
Precipitation 0.00 in - - ()
Sea Level Pressure  
Sea Level Pressure 29.95 in    
Wind  
Wind Speed 4 mph (SE)    
Max Wind Speed 21 mph    
Max Gust Speed 34 mph    
Visibility 10 miles    
Events      
Averages and records for this station are not official NWS values.
T = Trace of Precipitation, MM = Missing Value Source: NWS Daily Summary

Daily Weather History Graph

Daily Weather History Graph

Search for Another Location

Airport:

Trip Planner

Search our weather history database for the weather conditions in past years. The results will help you decide how hot, cold, wet, or windy it might be!

Date:

Astronomy

Apr. 01, 2013 Rise Set
Actual Time 7:42 AM CDT 8:13 PM CDT
Civil Twilight 7:17 AM CDT 8:38 PM CDT
Nautical Twilight 6:49 AM CDT 9:06 PM CDT
Astronomical Twilight 6:20 AM CDT 9:36 PM CDT
Moon 1:07 AM CDT (4/1) 11:47 AM CDT (4/1)
Length of Visible Light 13h 20m
Length of Day
12h 31m
Waning Gibbous, 67% of the Moon is Illuminated
Apr 1
Waning Gibbous
Apr 2
Last Quarter
Apr 10
New
Apr 18
First Quarter
Apr 25
Full

Hourly Weather History & Observations

Time (CDT) Temp. Dew Point Humidity Pressure Visibility Wind Dir Wind Speed Gust Speed Precip Events Conditions
12:15 AM 57.6 °F 35.2 °F 43% 30.01 in 10.0 mi South 5.8 mph - N/A   Clear
12:35 AM 56.1 °F 35.1 °F 45% 30.01 in 10.0 mi SSW 4.6 mph - N/A   Clear
12:55 AM 55.4 °F 34.9 °F 46% 30.01 in 10.0 mi SSW 4.6 mph - N/A   Clear
1:15 AM 54.9 °F 34.9 °F 47% 30.01 in 10.0 mi SSW 4.6 mph - N/A   Clear
1:35 AM 55.2 °F 35.6 °F 48% 30.01 in 10.0 mi SSW 3.5 mph - N/A   Clear
1:55 AM 54.0 °F 34.9 °F 49% 30.00 in 10.0 mi Calm Calm - N/A   Clear
2:15 AM 52.0 °F 34.5 °F 51% 30.02 in 10.0 mi SSW 4.6 mph - N/A   Clear
2:35 AM 52.0 °F 34.9 °F 52% 30.00 in 10.0 mi SW 3.5 mph - N/A   Clear
2:55 AM 50.7 °F 33.8 °F 52% 30.00 in 10.0 mi Calm Calm - N/A   Clear
3:15 AM 50.0 °F 33.4 °F 53% 30.00 in 10.0 mi Calm Calm - N/A   Clear
3:35 AM 53.6 °F 36.1 °F 52% 30.00 in 10.0 mi Calm Calm - N/A   Clear
3:55 AM 53.2 °F 36.5 °F 53% 30.00 in 10.0 mi ENE 3.5 mph - N/A   Clear
4:15 AM 53.6 °F 37.0 °F 53% 30.00 in 10.0 mi NE 3.5 mph - N/A   Clear
4:35 AM 50.9 °F 36.7 °F 58% 30.00 in 10.0 mi NE 5.8 mph - N/A   Clear
4:55 AM 50.2 °F 37.6 °F 62% 29.99 in 10.0 mi NE 6.9 mph - N/A   Clear
5:15 AM 50.9 °F 37.9 °F 61% 29.99 in 10.0 mi ENE 6.9 mph - N/A   Clear
5:35 AM 48.7 °F 37.0 °F 64% 29.99 in 10.0 mi East 4.6 mph - N/A   Clear
5:55 AM 47.5 °F 36.3 °F 65% 29.99 in 10.0 mi Calm Calm - N/A   Clear
6:15 AM 46.9 °F 36.1 °F 66% 29.99 in 10.0 mi Calm Calm - N/A   Clear
6:35 AM 48.4 °F 36.9 °F 64% 29.99 in 10.0 mi East 3.5 mph - N/A   Clear
6:55 AM 47.5 °F 36.7 °F 66% 29.99 in 10.0 mi Calm Calm - N/A   Clear
7:15 AM 46.8 °F 36.3 °F 67% 29.99 in 10.0 mi Calm Calm - N/A   Clear
7:35 AM 46.9 °F 36.5 °F 67% 30.00 in 10.0 mi Calm Calm - N/A   Clear
7:55 AM 47.1 °F 36.1 °F 66% 30.00 in 10.0 mi Calm Calm - N/A   Clear
8:15 AM 45.5 °F 35.2 °F 67% 30.02 in 5.0 mi Calm Calm - N/A   Haze
8:35 AM 47.5 °F 36.7 °F 66% 30.02 in 10.0 mi Calm Calm - N/A   Clear
9:35 AM 56.8 °F 39.9 °F 53% 30.04 in 10.0 mi NE 3.5 mph - N/A   Clear
10:15 AM 62.4 °F 41.2 °F 46% 30.03 in 10.0 mi ESE 3.5 mph - N/A   Clear
10:35 AM 64.0 °F 41.4 °F 43% 30.03 in 10.0 mi East 4.6 mph - N/A   Clear
10:55 AM 67.5 °F 42.1 °F 40% 30.03 in 10.0 mi Calm Calm - N/A   Clear
12:35 PM 78.6 °F 44.4 °F 30% 30.00 in 10.0 mi Calm Calm - N/A   Clear
1:15 PM 82.4 °F 43.0 °F 25% 29.98 in 10.0 mi South 3.5 mph - N/A   Clear
3:55 PM 89.1 °F 32.9 °F 14% 29.88 in 10.0 mi East 6.9 mph - N/A   Clear
4:15 PM 89.4 °F 33.6 °F 14% 29.86 in 10.0 mi Calm Calm - N/A   Clear
4:35 PM 88.5 °F 33.1 °F 14% 29.85 in 10.0 mi Calm Calm - N/A   Clear
4:55 PM 89.1 °F 34.0 °F 14% 29.84 in 10.0 mi WSW 8.1 mph - N/A   Clear
5:35 PM 89.4 °F 34.3 °F 14% 29.82 in 10.0 mi ESE 6.9 mph - N/A   Clear
6:15 PM 88.7 °F 35.1 °F 15% 29.80 in 10.0 mi ESE 6.9 mph - N/A   Clear
6:35 PM 88.3 °F 34.9 °F 15% 29.80 in 10.0 mi ESE 3.5 mph - N/A   Clear
6:55 PM 87.6 °F 34.7 °F 15% 29.79 in 10.0 mi East 8.1 mph - N/A   Clear
7:15 PM 86.9 °F 37.9 °F 18% 29.80 in 10.0 mi East 8.1 mph - N/A   Clear
9:35 PM 71.6 °F 45.0 °F 38% 29.86 in 4.0 mi SE 20.7 mph 34.5 mph N/A   Haze
9:55 PM 71.1 °F 43.0 °F 36% 29.86 in 10.0 mi SE 18.4 mph 25.3 mph N/A   Clear
10:15 PM 70.7 °F 48.6 °F 45% 29.86 in 10.0 mi SE 17.3 mph 23.0 mph N/A   Clear
10:55 PM 70.0 °F 48.6 °F 46% 29.86 in 10.0 mi SSE 11.5 mph - N/A   Clear
11:15 PM 69.8 °F 48.7 °F 47% 29.88 in 10.0 mi South 9.2 mph - N/A   Clear
11:35 PM 69.8 °F 50.9 °F 51% 29.88 in 10.0 mi SSE 9.2 mph - N/A   Clear
11:55 PM 68.7 °F 52.3 °F 56% 29.88 in 10.0 mi SSE 6.9 mph - N/A   Clear